Location: Betra
(48.4113°N, 8.6634°E)
Time: 16:03:17
(UTC+00:00)

Cosmos 1850 Rocket - Pass Details

Date: 11 August 2024
Orbit: 751 x 783 km, 74.0° (Epoch: 17 September)

Event Time Altitude Azimuth Distance (km) Brightness Sun altitude
Rises 19:50:13 0° 336° (NNW) 3,258 8.4 -10.1°
Reaches altitude 10° 19:52:36 10° 335° (NNW) 2,332 7.6 -10.4°
Maximum altitude 19:57:54 82° 250° (WSW) 793 4.1 -11.1°
Enters shadow 20:03:10 10° 163° (SSE) 2,311 6.0 -11.8°
